Stündliche Wetter Holodolina

Heute, 21 Juni, Montag

Zeit Temperatur Niederschläge Wind Luftdruck Luftfeuchtigkeit
00:00 +19°C° 0.2 mm 3 m/S 745 mmHg 87%
01:00 +19°C° 0.2 mm 3 m/S 745 mmHg 88%
02:00 +18°C° 0 mm 3 m/S 745 mmHg 90%
03:00 +18°C° 0 mm 3 m/S 745 mmHg 91%
04:00 +19°C° 0 mm 2 m/S 745 mmHg 92%
05:00 +19°C° 0 mm 2 m/S 745 mmHg 93%
06:00 +20°C° 0 mm 3 m/S 745 mmHg 87%
07:00 +22°C° 0 mm 3 m/S 745 mmHg 81%
08:00 +25°C° 0 mm 4 m/S 745 mmHg 75%
09:00 +26°C° 0 mm 4 m/S 745 mmHg 69%
10:00 +27°C° 0 mm 4 m/S 745 mmHg 62%
11:00 +29°C° 0 mm 5 m/S 745 mmHg 56%
12:00 +29°C° 0 mm 5 m/S 745 mmHg 54%
13:00 +30°C° 0 mm 5 m/S 744 mmHg 52%
14:00 +32°C° 0 mm 5 m/S 744 mmHg 51%
15:00 +30°C° 0 mm 5 m/S 744 mmHg 54%
16:00 +30°C° 0 mm 5 m/S 743 mmHg 56%
17:00 +30°C° 0 mm 5 m/S 743 mmHg 58%
18:00 +28°C° 0.1 mm 4 m/S 743 mmHg 65%
19:00 +27°C° 0.1 mm 4 m/S 743 mmHg 71%
20:00 +25°C° 0.1 mm 3 m/S 742 mmHg 78%
21:00 +24°C° 0.1 mm 3 m/S 743 mmHg 81%
22:00 +23°C° 0.1 mm 2 m/S 743 mmHg 83%
23:00 +21°C° 0.1 mm 2 m/S 743 mmHg 86%

Morgen, 22 Juni, Dienstag

Zeit Temperatur Niederschläge Wind Luftdruck Luftfeuchtigkeit
00:00 +21°C° 0 mm 2 m/S 743 mmHg 87%
01:00 +20°C° 0 mm 2 m/S 743 mmHg 89%
02:00 +20°C° 0 mm 2 m/S 742 mmHg 90%
03:00 +20°C° 0 mm 2 m/S 743 mmHg 91%
04:00 +20°C° 0 mm 2 m/S 743 mmHg 92%
05:00 +19°C° 0 mm 2 m/S 743 mmHg 92%
06:00 +21°C° 0 mm 3 m/S 743 mmHg 86%
07:00 +24°C° 0 mm 3 m/S 743 mmHg 81%
08:00 +25°C° 0 mm 4 m/S 743 mmHg 75%
09:00 +26°C° 0 mm 4 m/S 744 mmHg 69%
10:00 +28°C° 0 mm 4 m/S 744 mmHg 63%
11:00 +29°C° 0 mm 5 m/S 744 mmHg 57%
12:00 +30°C° 0 mm 4 m/S 744 mmHg 55%
13:00 +30°C° 0 mm 4 m/S 744 mmHg 52%
14:00 +32°C° 0 mm 4 m/S 744 mmHg 50%
15:00 +32°C° 0 mm 4 m/S 744 mmHg 52%
16:00 +32°C° 0 mm 4 m/S 744 mmHg 55%
17:00 +30°C° 0 mm 3 m/S 744 mmHg 57%
18:00 +29°C° 0.1 mm 3 m/S 744 mmHg 62%
19:00 +28°C° 0.1 mm 3 m/S 744 mmHg 68%
20:00 +27°C° 0.1 mm 2 m/S 744 mmHg 73%
21:00 +25°C° 0 mm 2 m/S 744 mmHg 75%
22:00 +24°C° 0 mm 2 m/S 744 mmHg 78%
23:00 +23°C° 0 mm 2 m/S 745 mmHg 81%

übermorgen, 23 Juni, Mittwoch

Zeit Temperatur Niederschläge Wind Luftdruck Luftfeuchtigkeit
00:00 +23°C° 0 mm 2 m/S 745 mmHg 83%
01:00 +22°C° 0 mm 1 m/S 745 mmHg 86%
02:00 +21°C° 0 mm 1 m/S 745 mmHg 89%
03:00 +21°C° 0 mm 1 m/S 745 mmHg 89%
04:00 +21°C° 0 mm 1 m/S 745 mmHg 89%
05:00 +21°C° 0 mm 1 m/S 745 mmHg 89%
06:00 +23°C° 0 mm 1 m/S 745 mmHg 85%
07:00 +24°C° 0 mm 1 m/S 746 mmHg 80%
08:00 +26°C° 0 mm 1 m/S 746 mmHg 76%
09:00 +26°C° 0.4 mm 2 m/S 746 mmHg 74%
10:00 +27°C° 0.4 mm 2 m/S 747 mmHg 71%
11:00 +28°C° 0.4 mm 2 m/S 747 mmHg 69%
12:00 +28°C° 0.6 mm 2 m/S 747 mmHg 69%
13:00 +28°C° 0.6 mm 2 m/S 747 mmHg 69%
14:00 +28°C° 0.6 mm 1 m/S 747 mmHg 69%
15:00 +28°C° 0.5 mm 2 m/S 747 mmHg 73%
16:00 +27°C° 0.5 mm 2 m/S 747 mmHg 76%
17:00 +27°C° 0.5 mm 3 m/S 747 mmHg 79%
18:00 +26°C° 0.1 mm 3 m/S 747 mmHg 83%
19:00 +25°C° 0.1 mm 3 m/S 747 mmHg 87%
20:00 +24°C° 0.1 mm 3 m/S 747 mmHg 91%
21:00 +22°C° 1.2 mm 3 m/S 747 mmHg 93%
22:00 +21°C° 1.2 mm 3 m/S 748 mmHg 95%
23:00 +20°C° 1.2 mm 2 m/S 748 mmHg 97%

24 Juni, Donnerstag

Zeit Temperatur Niederschläge Wind Luftdruck Luftfeuchtigkeit
00:00 +19°C° 0.5 mm 2 m/S 748 mmHg 97%
01:00 +19°C° 0.5 mm 2 m/S 748 mmHg 97%
02:00 +19°C° 0.5 mm 2 m/S 748 mmHg 97%
03:00 +19°C° 0.7 mm 2 m/S 747 mmHg 97%
04:00 +18°C° 0.7 mm 2 m/S 747 mmHg 97%
05:00 +18°C° 0.7 mm 2 m/S 747 mmHg 97%
06:00 +19°C° 0.3 mm 2 m/S 747 mmHg 94%
07:00 +20°C° 0.3 mm 2 m/S 747 mmHg 91%
08:00 +21°C° 0.3 mm 2 m/S 748 mmHg 89%
09:00 +24°C° 0.1 mm 2 m/S 748 mmHg 83%
10:00 +25°C° 0.1 mm 1 m/S 748 mmHg 77%
11:00 +27°C° 0.1 mm 1 m/S 748 mmHg 70%
12:00 +28°C° 0.2 mm 1 m/S 747 mmHg 67%
13:00 +29°C° 0.2 mm 1 m/S 747 mmHg 64%
14:00 +30°C° 0.2 mm 1 m/S 747 mmHg 60%
15:00 +30°C° 0.5 mm 2 m/S 747 mmHg 62%
16:00 +29°C° 0.5 mm 2 m/S 746 mmHg 64%
17:00 +29°C° 0.5 mm 3 m/S 746 mmHg 66%
18:00 +27°C° 0.9 mm 3 m/S 746 mmHg 73%
19:00 +25°C° 0.9 mm 2 m/S 746 mmHg 79%
20:00 +22°C° 0.9 mm 1 m/S 746 mmHg 86%
21:00 +22°C° 0 mm 1 m/S 746 mmHg 87%
22:00 +21°C° 0 mm 1 m/S 746 mmHg 88%
23:00 +21°C° 0 mm 1 m/S 746 mmHg 90%

25 Juni, Freitag

Zeit Temperatur Niederschläge Wind Luftdruck Luftfeuchtigkeit
00:00 +19°C° 0.1 mm 2 m/S 746 mmHg 92%
01:00 +19°C° 0.1 mm 2 m/S 746 mmHg 94%
02:00 +19°C° 0.1 mm 2 m/S 746 mmHg 96%
03:00 +19°C° 0 mm 2 m/S 746 mmHg 96%
04:00 +19°C° 0 mm 2 m/S 745 mmHg 96%
05:00 +19°C° 0 mm 2 m/S 745 mmHg 96%
06:00 +20°C° 0 mm 2 m/S 745 mmHg 90%
07:00 +23°C° 0 mm 2 m/S 745 mmHg 83%
08:00 +24°C° 0 mm 2 m/S 745 mmHg 77%
09:00 +25°C° 0 mm 2 m/S 744 mmHg 75%
10:00 +27°C° 0 mm 3 m/S 744 mmHg 72%
11:00 +28°C° 0 mm 3 m/S 744 mmHg 69%
12:00 +29°C° 1 mm 3 m/S 744 mmHg 69%
13:00 +30°C° 1 mm 4 m/S 744 mmHg 68%
14:00 +30°C° 1 mm 4 m/S 743 mmHg 67%
15:00 +29°C° 2.4 mm 4 m/S 743 mmHg 73%
16:00 +28°C° 2.4 mm 4 m/S 743 mmHg 78%
17:00 +26°C° 2.4 mm 4 m/S 742 mmHg 84%
18:00 +25°C° 1.8 mm 3 m/S 743 mmHg 86%
19:00 +22°C° 1.8 mm 3 m/S 743 mmHg 89%
20:00 +20°C° 1.8 mm 2 m/S 743 mmHg 92%
21:00 +20°C° 0 mm 3 m/S 744 mmHg 93%
22:00 +19°C° 0 mm 3 m/S 744 mmHg 95%
23:00 +18°C° 0 mm 4 m/S 744 mmHg 96%

26 Juni, Samstag

Zeit Temperatur Niederschläge Wind Luftdruck Luftfeuchtigkeit
00:00 +18°C° 0 mm 4 m/S 744 mmHg 96%
01:00 +17°C° 0 mm 4 m/S 745 mmHg 95%
02:00 +17°C° 0 mm 3 m/S 745 mmHg 95%
03:00 +17°C° 0 mm 3 m/S 745 mmHg 95%
04:00 +16°C° 0 mm 3 m/S 745 mmHg 95%
05:00 +16°C° 0 mm 3 m/S 745 mmHg 95%
06:00 +17°C° 0 mm 3 m/S 745 mmHg 90%
07:00 +18°C° 0 mm 4 m/S 746 mmHg 86%
08:00 +18°C° 0 mm 4 m/S 746 mmHg 81%
09:00 +20°C° 0 mm 4 m/S 746 mmHg 75%
10:00 +21°C° 0 mm 4 m/S 746 mmHg 69%
11:00 +22°C° 0 mm 5 m/S 747 mmHg 63%
12:00 +23°C° 0 mm 4 m/S 746 mmHg 61%
13:00 +25°C° 0 mm 4 m/S 746 mmHg 59%
14:00 +25°C° 0 mm 4 m/S 746 mmHg 57%
15:00 +25°C° 0 mm 4 m/S 747 mmHg 60%
16:00 +23°C° 0 mm 4 m/S 747 mmHg 63%
17:00 +23°C° 0 mm 4 m/S 747 mmHg 66%
18:00 +22°C° 0 mm 3 m/S 747 mmHg 69%
19:00 +21°C° 0 mm 3 m/S 747 mmHg 73%
20:00 +20°C° 0 mm 2 m/S 746 mmHg 77%
21:00 +19°C° 0 mm 2 m/S 747 mmHg 81%
22:00 +18°C° 0 mm 2 m/S 747 mmHg 85%
23:00 +17°C° 0 mm 2 m/S 747 mmHg 89%
Mehr zeigen

Wir brauchen deine Erlaubnis

Meteoprog und unser Service Anbieter werden persönliche Daten aufbewahren, so wie Cookies, Geräte Bezeichnung oder ähnliche Technologien von deinem Gerät und Prozess, so wie Persönliche Daten Inhalte und Werbungen, genauso wie social Media und den Verkehr zu analysieren.

  • Aufbewahrung und/oder Zugang zu deiner Geräte Informationen.

    Cookies, Geräte Bezeichnung oder andere Informationen, können aufbewahrt oder Zugang zu deinem Gerät erhalten, für den Grund, der oben angegeben wird.

  • Personalisierte Werbung und Inhalte, Messungen, Einblick in das Publikum und Produkt Entwicklung.

    Werbungen und Inhalte können personalisiert werden, basierend auf ein Profil. Mehr Daten können besser personalisierte Werbungen und Inhalte hinzufügen. Werbung und Inhalte können gezeigt und gemessen werden. Einblicke über das Publikum, welche die Werbung gesehen haben und den Inhalt, können abgeleitet werden. So wie Daten können genutzt werden, um es zu verbessern oder die Benutzer Erfahrung zu verbessern das System und die Software.

Wenn du “Ich stimme zu” klickst, erlaubst du uns, die Cookies zu benutzen die Geräte Bezeichnung, den Web oder ähnliche Technologien zu benutzen. Deine Settings, können in deinem Gerät bei deinem Browser geändert werden.

Für den bestimmten Zweck, berechtigten Interessen beruhen darauf, mehr als auf den Inhalt. Du kannst mehr darüber in unseren Privaten und Cookie Politik lesen.